Estación Meteorológica Peña el Pijo (Robertgarden) [ 07/12/20 04:11:03 CEST ]

Fecha Hora Presion(HPa) Temp (°C) Humedad % Rocio (°C) Viento ( m/s) Direccion Lluvia 1Hora(mm) Lluvia 24H(mm) LLuvia Total(mm)
2020-Feb-16 01:09:48 1017.400 - - - - N     39.88
2020-Feb-16 02:09:29 1017.000 - - - - N     39.88
2020-Feb-16 03:09:37 1017.200 - - - - N     39.88
2020-Feb-16 04:09:25 1016.700 - - - - N     39.88
2020-Feb-16 05:09:38 1016.200 - - - - N     39.88
2020-Feb-16 06:09:44 1016.100 - - - - N     39.88
2020-Feb-16 07:09:26 1016.000 - - - - N     39.88
2020-Feb-16 08:09:28 1016.800 - - - - N     39.88
2020-Feb-16 09:09:09 1017.000 - - - - N     39.88
2020-Feb-16 10:09:05 1016.800 - - - - N     39.88
2020-Feb-16 11:08:59 1017.100 - - - - N     39.88
2020-Feb-16 12:09:44 1016.500 - - - - N     39.88
2020-Feb-16 13:09:23 1016.100 - - - - N     39.88
2020-Feb-16 14:08:56 1015.200 - - - - N     39.88
2020-Feb-16 15:09:12 1014.800 - - - - N     39.88
2020-Feb-16 16:08:57 1014.900 - - - - N     39.88
2020-Feb-16 17:09:04 1014.800 - - - - N     39.88
2020-Feb-16 18:09:11 1015.100 - - - - N     39.88
2020-Feb-16 19:09:23 1016.000 - - - - N     39.88
2020-Feb-16 20:09:34 1016.500 - - - - N     39.88
2020-Feb-16 21:09:19 1016.900 - - - - N     39.88
2020-Feb-16 22:08:57 1016.900 - - - - N     39.88
2020-Feb-16 23:09:15 1016.900 - - - - N     39.88

Temperatura Máxima:    Temperatura Mínima:
Presión Máxima:1017.400 Hpa    Presión Mínima:1014.800 Hpa


Volver